TimeCDT,TemperatureF,Dew PointF,Humidity,Sea Level PressureIn,VisibilityMPH,Wind Direction,Wind SpeedMPH,Gust SpeedMPH,PrecipitationIn,Events,Conditions,WindDirDegrees,DateUTC
12:27 AM,64.4,62.6,94,29.76,3.0,South,8.1,-,0.13,Rain,Light Rain,190,2012-10-14 05:27:00
12:53 AM,64.9,62.1,90,29.75,4.0,SSW,8.1,-,0.13,,Overcast,210,2012-10-14 05:53:00
1:02 AM,64.4,62.6,94,29.75,4.0,SSW,8.1,-,N/A,,Overcast,210,2012-10-14 06:02:00
1:31 AM,64.4,62.6,94,29.74,4.0,SSW,10.4,-,N/A,,Overcast,210,2012-10-14 06:31:00
1:53 AM,64.9,62.1,90,29.74,4.0,SSW,8.1,-,N/A,,Overcast,210,2012-10-14 06:53:00
2:53 AM,64.0,61.0,90,29.71,4.0,South,5.8,-,N/A,,Scattered Clouds,190,2012-10-14 07:53:00
3:29 AM,62.6,60.8,94,29.69,2.5,South,4.6,-,N/A,,Partly Cloudy,170,2012-10-14 08:29:00
3:51 AM,62.6,60.8,94,29.68,3.0,South,6.9,-,N/A,,Partly Cloudy,170,2012-10-14 08:51:00
3:53 AM,63.0,61.0,93,29.68,3.0,South,6.9,-,N/A,,Partly Cloudy,170,2012-10-14 08:53:00
4:53 AM,64.0,62.1,93,29.65,4.0,South,9.2,-,0.02,Rain,Light Rain,180,2012-10-14 09:53:00
4:58 AM,64.4,62.6,94,29.66,4.0,South,9.2,-,0.00,Rain,Light Rain,180,2012-10-14 09:58:00
5:15 AM,64.4,62.6,94,29.66,3.0,South,8.1,-,0.02,Rain,Light Rain,180,2012-10-14 10:15:00
5:29 AM,64.4,62.6,94,29.64,2.5,South,8.1,-,0.06,Rain,Rain,170,2012-10-14 10:29:00
5:41 AM,64.4,62.6,94,29.63,3.0,SSE,8.1,-,0.07,Rain,Light Rain,160,2012-10-14 10:41:00
5:53 AM,64.0,62.1,93,29.62,4.0,SSE,8.1,18.4,0.08,Rain,Light Rain,160,2012-10-14 10:53:00
6:01 AM,64.4,62.6,94,29.61,6.0,SSE,9.2,-,0.00,Rain,Light Rain,150,2012-10-14 11:01:00
6:30 AM,64.4,60.8,88,29.59,7.0,SSE,12.7,-,0.01,Rain,Light Rain,150,2012-10-14 11:30:00
6:48 AM,62.6,60.8,94,29.57,3.0,SE,10.4,-,0.03,Rain,Light Rain,130,2012-10-14 11:48:00
6:53 AM,63.0,61.0,93,29.57,3.0,SE,9.2,-,0.03,Rain,Light Rain,130,2012-10-14 11:53:00
7:06 AM,62.6,60.8,94,29.56,2.0,SE,12.7,-,0.02,Rain,Rain,130,2012-10-14 12:06:00
7:53 AM,63.0,61.0,93,29.54,3.0,SSE,9.2,-,0.03,Rain,Light Rain,160,2012-10-14 12:53:00
8:53 AM,64.0,61.0,90,29.53,5.0,SW,17.3,25.3,0.01,,Overcast,220,2012-10-14 13:53:00
9:53 AM,64.9,60.1,84,29.52,10.0,SSW,19.6,27.6,N/A,,Overcast,210,2012-10-14 14:53:00
10:53 AM,64.0,60.1,87,29.52,10.0,SW,17.3,29.9,0.01,,Overcast,220,2012-10-14 15:53:00
11:06 AM,64.4,60.8,88,29.52,5.0,SW,15.0,27.6,0.00,Rain,Light Rain,220,2012-10-14 16:06:00
11:53 AM,66.0,60.1,81,29.48,5.0,SSW,11.5,-,0.00,,Haze,200,2012-10-14 16:53:00
12:53 PM,66.9,62.1,84,29.45,10.0,SSW,13.8,20.7,0.02,,Mostly Cloudy,210,2012-10-14 17:53:00
1:53 PM,64.9,60.1,84,29.42,4.0,SW,13.8,21.9,0.02,Rain,Light Rain,230,2012-10-14 18:53:00
3:53 PM,63.0,59.0,87,29.43,10.0,SSW,6.9,-,N/A,,Mostly Cloudy,210,2012-10-14 20:53:00
4:45 PM,53.6,50.0,88,29.46,10.0,NNW,16.1,26.5,N/A,,Overcast,330,2012-10-14 21:45:00
4:53 PM,52.0,48.9,89,29.47,4.0,NW,13.8,27.6,0.00,Rain,Light Rain,320,2012-10-14 21:53:00
5:14 PM,51.8,46.4,82,29.49,2.5,NNW,19.6,27.6,0.01,Rain,Light Rain,330,2012-10-14 22:14:00
5:27 PM,50.0,46.4,87,29.50,6.0,NNW,17.3,27.6,0.02,Rain,Light Rain,330,2012-10-14 22:27:00
5:53 PM,50.0,46.0,86,29.53,8.0,NNW,16.1,25.3,0.02,Rain,Light Rain,330,2012-10-14 22:53:00
6:53 PM,48.9,46.0,90,29.58,9.0,NW,17.3,28.8,0.02,Rain,Light Rain,310,2012-10-14 23:53:00
7:00 PM,48.2,46.4,93,29.59,10.0,WNW,20.7,27.6,0.00,Rain,Light Rain,300,2012-10-15 00:00:00
7:53 PM,48.9,45.0,86,29.65,10.0,WNW,17.3,29.9,0.01,,Overcast,300,2012-10-15 00:53:00
8:53 PM,48.9,44.1,83,29.68,10.0,WNW,17.3,26.5,0.00,,Overcast,300,2012-10-15 01:53:00
9:36 PM,48.2,44.6,87,29.71,10.0,WNW,15.0,28.8,N/A,,Overcast,300,2012-10-15 02:36:00
9:53 PM,48.9,44.1,83,29.71,10.0,WNW,15.0,23.0,N/A,,Overcast,300,2012-10-15 02:53:00
10:33 PM,48.2,44.6,87,29.73,10.0,WNW,10.4,-,N/A,,Overcast,290,2012-10-15 03:33:00
10:53 PM,48.0,44.1,86,29.74,10.0,WNW,12.7,-,N/A,,Overcast,290,2012-10-15 03:53:00
11:33 PM,48.2,44.6,87,29.74,9.0,WNW,10.4,-,N/A,,Overcast,290,2012-10-15 04:33:00
11:53 PM,48.0,44.1,86,29.75,10.0,WNW,10.4,-,N/A,,Overcast,290,2012-10-15 04:53:00